Location: Ville-Marie
(47.3330°N, 79.4330°W)
Time: 23:28:11
(UTC-04:00)

ISS - Visible Passes

Search period start: 24 September 2020 00:00
Search period end: 04 October 2020 00:00
Orbit: 419 x 420 km, 51.6° (Epoch: 25 September)

Date Brightness Start Highest point End Pass type
(mag) Time Alt. Az. Time Alt. Az. Time Alt. Az.
24 Sep -2.8 20:21:02 10° W 20:24:18 44° N 20:26:39 17° ENE visible
24 Sep -1.1 21:58:18 10° WNW 21:59:37 20° NW 21:59:37 20° NW visible
25 Sep -3.1 19:33:31 10° W 19:36:50 53° NNW 19:40:09 10° ENE visible
25 Sep -2.7 21:10:50 10° WNW 21:14:00 38° N 21:14:00 38° N visible
26 Sep -2.7 20:23:20 10° WNW 20:26:31 37° N 20:28:21 20° NE visible
26 Sep -0.8 22:00:21 10° WNW 22:01:19 18° WNW 22:01:19 18° WNW visible
27 Sep -2.7 19:35:47 10° WNW 19:39:00 39° N 19:42:12 10° ENE visible
27 Sep -2.7 21:12:55 10° WNW 21:15:39 43° NNW 21:15:39 43° NNW visible
28 Sep -2.9 20:25:29 10° WNW 20:28:43 42° N 20:30:00 28° ENE visible
28 Sep -0.6 22:02:19 10° WNW 22:02:57 15° WNW 22:02:57 15° WNW visible
29 Sep -2.8 19:37:58 10° WNW 19:41:11 38° N 19:44:20 10° ENE visible
29 Sep -2.6 21:14:52 10° WNW 21:17:18 44° WNW 21:17:18 44° WNW visible
30 Sep -3.6 20:27:26 10° WNW 20:30:47 62° NNE 20:31:41 42° E visible
30 Sep -0.3 22:04:28 10° W 22:04:38 11° W 22:04:38 11° W visible
01 Oct -3.2 19:39:58 10° WNW 19:43:16 49° NNE 19:46:05 13° E visible
01 Oct -2.1 21:16:51 10° WNW 21:19:02 32° W 21:19:02 32° W visible
02 Oct -3.6 20:29:20 10° WNW 20:32:41 69° SSW 20:33:29 47° SE visible
03 Oct -3.8 19:41:50 10° WNW 19:45:13 84° NNE 19:48:00 14° ESE visible
03 Oct -1.3 21:19:11 10° W 21:20:58 18° WSW 21:20:58 18° WSW visible
